When you browse on this site, cookies collect data to enhance your experience and personalize the content and advertising you see.
Visit our Privacy Policy to learn more. By continuing to use the site, you agree to this use of cookies and data.
EN

Hourly Weather Aberdour

Today, 16 July, Thursday

Time Temperature Precipitation Wind Pressure Humidity
00:00 +12°C° 0 mm 4 mps 751 mmHg 86%
01:00 +12°C° 0 mm 4 mps 751 mmHg 88%
02:00 +12°C° 0 mm 3 mps 751 mmHg 90%
03:00 +12°C° 0 mm 3 mps 751 mmHg 92%
04:00 +12°C° 0 mm 4 mps 751 mmHg 91%
05:00 +13°C° 0 mm 4 mps 751 mmHg 90%
06:00 +14°C° 0 mm 4 mps 751 mmHg 89%
07:00 +15°C° 0 mm 4 mps 751 mmHg 86%
08:00 +16°C° 0 mm 5 mps 752 mmHg 83%
09:00 +17°C° 0 mm 5 mps 752 mmHg 81%
10:00 +19°C° 0 mm 6 mps 752 mmHg 79%
11:00 +20°C° 0 mm 6 mps 752 mmHg 77%
12:00 +20°C° 0 mm 6 mps 752 mmHg 75%
13:00 +20°C° 0 mm 6 mps 752 mmHg 75%
14:00 +21°C° 0 mm 6 mps 752 mmHg 74%
15:00 +21°C° 0 mm 7 mps 752 mmHg 73%
16:00 +20°C° 0 mm 6 mps 752 mmHg 74%
17:00 +19°C° 0 mm 6 mps 752 mmHg 76%
18:00 +19°C° 0 mm 6 mps 752 mmHg 77%
19:00 +16°C° 0 mm 5 mps 752 mmHg 81%
20:00 +15°C° 0 mm 5 mps 752 mmHg 85%
21:00 +14°C° 0 mm 4 mps 752 mmHg 90%
22:00 +14°C° 0 mm 4 mps 752 mmHg 89%
23:00 +14°C° 0 mm 4 mps 751 mmHg 88%

Tomorrow, 17 July, Friday

Time Temperature Precipitation Wind Pressure Humidity
00:00 +14°C° 0 mm 4 mps 751 mmHg 87%
01:00 +14°C° 0 mm 5 mps 751 mmHg 87%
02:00 +14°C° 0 mm 5 mps 751 mmHg 87%
03:00 +15°C° 0 mm 5 mps 750 mmHg 87%
04:00 +15°C° 0 mm 5 mps 750 mmHg 88%
05:00 +14°C° 0 mm 5 mps 750 mmHg 89%
06:00 +14°C° 0 mm 4 mps 750 mmHg 90%
07:00 +14°C° 0 mm 4 mps 750 mmHg 90%
08:00 +14°C° 0 mm 4 mps 750 mmHg 91%
09:00 +15°C° 0 mm 4 mps 750 mmHg 91%
10:00 +14°C° 0 mm 4 mps 750 mmHg 86%
11:00 +14°C° 0 mm 4 mps 750 mmHg 81%
12:00 +14°C° 0 mm 4 mps 750 mmHg 77%
13:00 +14°C° 0.1 mm 4 mps 750 mmHg 78%
14:00 +14°C° 0.1 mm 3 mps 750 mmHg 80%
15:00 +13°C° 0.1 mm 3 mps 750 mmHg 82%
16:00 +13°C° 0.1 mm 3 mps 750 mmHg 82%
17:00 +13°C° 0.1 mm 3 mps 750 mmHg 83%
18:00 +13°C° 0.1 mm 3 mps 749 mmHg 83%
19:00 +12°C° 0 mm 3 mps 750 mmHg 86%
20:00 +11°C° 0 mm 3 mps 750 mmHg 88%
21:00 +11°C° 0 mm 3 mps 750 mmHg 91%
22:00 +10°C° 0 mm 3 mps 750 mmHg 91%
23:00 +10°C° 0 mm 4 mps 750 mmHg 92%

Day after tomorrow, 18 July, Saturday

Time Temperature Precipitation Wind Pressure Humidity
00:00 +8°C° 0 mm 4 mps 750 mmHg 93%
01:00 +8°C° 0 mm 4 mps 750 mmHg 91%
02:00 +8°C° 0 mm 3 mps 750 mmHg 90%
03:00 +7°C° 0 mm 3 mps 750 mmHg 89%
04:00 +8°C° 0 mm 3 mps 749 mmHg 87%
05:00 +9°C° 0 mm 3 mps 749 mmHg 85%
06:00 +10°C° 0 mm 3 mps 749 mmHg 83%
07:00 +11°C° 0 mm 4 mps 749 mmHg 79%
08:00 +12°C° 0 mm 4 mps 749 mmHg 75%
09:00 +13°C° 0 mm 5 mps 749 mmHg 71%
10:00 +14°C° 0.1 mm 5 mps 749 mmHg 69%
11:00 +15°C° 0.1 mm 5 mps 749 mmHg 67%
12:00 +15°C° 0.1 mm 6 mps 749 mmHg 65%
13:00 +15°C° 0.1 mm 6 mps 749 mmHg 67%
14:00 +15°C° 0.1 mm 6 mps 749 mmHg 69%
15:00 +15°C° 0.1 mm 6 mps 749 mmHg 70%
16:00 +15°C° 0 mm 5 mps 749 mmHg 69%
17:00 +15°C° 0 mm 5 mps 749 mmHg 68%
18:00 +15°C° 0 mm 5 mps 749 mmHg 66%
19:00 +13°C° 0 mm 5 mps 749 mmHg 71%
20:00 +11°C° 0 mm 4 mps 749 mmHg 75%
21:00 +10°C° 0 mm 3 mps 749 mmHg 79%
22:00 +9°C° 0 mm 3 mps 749 mmHg 83%
23:00 +8°C° 0 mm 3 mps 749 mmHg 86%

19 July, Sunday

Time Temperature Precipitation Wind Pressure Humidity
00:00 +8°C° 0 mm 3 mps 749 mmHg 90%
01:00 +8°C° 0 mm 3 mps 749 mmHg 91%
02:00 +7°C° 0 mm 3 mps 749 mmHg 92%
03:00 +7°C° 0 mm 3 mps 750 mmHg 92%
04:00 +8°C° 0 mm 3 mps 750 mmHg 90%
05:00 +9°C° 0 mm 3 mps 750 mmHg 88%
06:00 +9°C° 0 mm 3 mps 750 mmHg 86%
07:00 +11°C° 0 mm 3 mps 750 mmHg 79%
08:00 +12°C° 0 mm 4 mps 750 mmHg 73%
09:00 +13°C° 0 mm 4 mps 750 mmHg 66%
10:00 +14°C° 0.1 mm 5 mps 750 mmHg 65%
11:00 +14°C° 0.1 mm 5 mps 750 mmHg 64%
12:00 +15°C° 0.1 mm 6 mps 750 mmHg 63%
13:00 +15°C° 0.2 mm 6 mps 751 mmHg 63%
14:00 +15°C° 0.2 mm 6 mps 751 mmHg 63%
15:00 +15°C° 0.2 mm 7 mps 751 mmHg 63%
16:00 +15°C° 0.1 mm 6 mps 751 mmHg 65%
17:00 +14°C° 0.1 mm 6 mps 751 mmHg 66%
18:00 +14°C° 0.1 mm 6 mps 751 mmHg 68%
19:00 +12°C° 0 mm 5 mps 751 mmHg 72%
20:00 +10°C° 0 mm 5 mps 752 mmHg 76%
21:00 +10°C° 0 mm 4 mps 752 mmHg 79%
22:00 +8°C° 0 mm 4 mps 752 mmHg 82%
23:00 +8°C° 0 mm 4 mps 752 mmHg 84%

20 July, Monday

Time Temperature Precipitation Wind Pressure Humidity
00:00 +8°C° 0 mm 3 mps 752 mmHg 86%
01:00 +8°C° 0 mm 3 mps 752 mmHg 88%
02:00 +7°C° 0 mm 3 mps 752 mmHg 90%
03:00 +7°C° 0 mm 3 mps 752 mmHg 91%
04:00 +8°C° 0 mm 3 mps 752 mmHg 89%
05:00 +8°C° 0 mm 3 mps 752 mmHg 87%
06:00 +9°C° 0 mm 3 mps 752 mmHg 85%
07:00 +10°C° 0 mm 3 mps 752 mmHg 80%
08:00 +12°C° 0 mm 3 mps 752 mmHg 75%
09:00 +13°C° 0 mm 3 mps 752 mmHg 70%
10:00 +13°C° 0.2 mm 3 mps 752 mmHg 68%
11:00 +14°C° 0.2 mm 3 mps 752 mmHg 67%
12:00 +14°C° 0.2 mm 3 mps 752 mmHg 65%
13:00 +16°C° 0.5 mm 3 mps 752 mmHg 66%
14:00 +16°C° 0.5 mm 3 mps 752 mmHg 67%
15:00 +16°C° 0.5 mm 3 mps 752 mmHg 68%
16:00 +14°C° 0.7 mm 3 mps 752 mmHg 73%
17:00 +14°C° 0.7 mm 3 mps 752 mmHg 77%
18:00 +13°C° 0.7 mm 3 mps 753 mmHg 82%
19:00 +13°C° 0.3 mm 2 mps 753 mmHg 84%
20:00 +12°C° 0.3 mm 2 mps 753 mmHg 87%
21:00 +11°C° 0.3 mm 1 mps 754 mmHg 89%
22:00 +11°C° 0.3 mm 1 mps 754 mmHg 90%
23:00 +11°C° 0.3 mm 1 mps 754 mmHg 91%

21 July, Tuesday

Time Temperature Precipitation Wind Pressure Humidity
00:00 +11°C° 0.3 mm 1 mps 754 mmHg 92%
01:00 +10°C° 0 mm 1 mps 755 mmHg 92%
02:00 +8°C° 0 mm 2 mps 755 mmHg 92%
03:00 +7°C° 0 mm 2 mps 755 mmHg 92%
04:00 +8°C° 0 mm 2 mps 755 mmHg 91%
05:00 +8°C° 0 mm 2 mps 755 mmHg 90%
06:00 +8°C° 0 mm 2 mps 755 mmHg 89%
07:00 +10°C° 0 mm 3 mps 755 mmHg 82%
08:00 +11°C° 0 mm 4 mps 755 mmHg 75%
09:00 +13°C° 0 mm 4 mps 756 mmHg 68%
10:00 +14°C° 0 mm 5 mps 755 mmHg 65%
11:00 +15°C° 0 mm 5 mps 755 mmHg 62%
12:00 +15°C° 0 mm 5 mps 755 mmHg 58%
13:00 +15°C° 0.1 mm 6 mps 755 mmHg 60%
14:00 +15°C° 0.1 mm 6 mps 755 mmHg 62%
15:00 +15°C° 0.1 mm 6 mps 755 mmHg 64%
16:00 +15°C° 0.1 mm 6 mps 755 mmHg 66%
17:00 +14°C° 0.1 mm 6 mps 755 mmHg 67%
18:00 +14°C° 0.1 mm 6 mps 755 mmHg 69%
19:00 +12°C° 0 mm 5 mps 755 mmHg 73%
20:00 +11°C° 0 mm 4 mps 755 mmHg 78%
21:00 +10°C° 0 mm 4 mps 755 mmHg 82%
22:00 +9°C° 0 mm 3 mps 755 mmHg 84%
23:00 +8°C° 0 mm 3 mps 755 mmHg 87%
Show more